[[{"header":{"parameterUnit":"m.s-1","parameterCategory":1,"la1":30.2991,"la2":30.254,"lo1":-89.0895,"lo2":-89.0444,"dy":0.0017,"dx":0.0017,"nx":28,"ny":28,"refTime":"2024-10-22T03:00:00:Z","depth":0,"parameterNumber":2,"parameterNumberName":"U-component_of_WINDS"},"data":[0,0,0,0,0,0,0,0,0,0,0,0,0,0,0,0,0,0,0,0,0,0,0,0,0,0,0,0,0,0,0,0,0,0,0,0,0,0,0,0,0,0,0,0,0,0,0,0,0,0,0,0,0,0,0,0,0,0,1.0953,1.0953,0,1.097,1.0971,1.0971,1.0994,1.0995,1.0995,1.0995,1.1011,1.1011,1.1011,0,0,0,0,0,0,0,0,0,0,0,0,0,1.0939,1.0939,1.0953,1.0953,1.0953,1.097,1.0971,1.0971,1.0994,1.0995,1.0995,1.0996,1.1011,1.1011,1.1011,0,0,0,0,0,0,0,0,0,0,0,0,0,1.0949,1.0939,1.0953,1.0967,1.0969,1.097,1.0971,1.0971,1.0994,1.0995,1.0995,1.0996,1.1011,1.1011,1.1011,1.1,0,0,1.1012,1.1012,0,0,0,0,0,0,0,0,1.0949,1.095,1.0965,1.0966,1.0968,1.0981,1.0971,1.098,1.0994,1.0984,1.0996,1.0996,1.1001,1.1001,1.1003,1.1001,1.1001,1.1012,1.1012,1.1012,1.1012,0,0,0,0,0,0,0,1.0948,1.0949,1.096,1.0965,1.0967,1.0972,1.0974,1.0973,1.0989,1.0985,1.0987,1.0989,1.1001,1.1003,1.1004,1.1001,1.1012,1.1012,1.1012,1.1012,1.099,1.0989,0,0,0,0,0,0,1.0945,1.0948,1.0959,1.096,1.096,1.0972,1.0974,1.0976,1.0989,1.0991,1.0988,1.099,1.1003,1.1004,1.1005,1.0991,1.1012,1.1012,1.1012,1.099,1.099,1.0989,0,0,0,0,0,0,1.0945,1.0946,1.0959,1.0955,1.0957,1.0972,1.0973,1.0976,1.0978,1.0991,1.0994,1.0987,1.1003,1.1004,1.1001,1.0992,1.1012,1.1012,1.0991,1.099,1.0989,1.0965,0,0,0,0,0,0,1.0944,1.0946,1.0942,1.0955,1.0957,1.0955,1.0973,1.0976,1.0978,1.098,1.0991,1.0993,1.1004,1.1001,1.1001,1.0993,1.1012,1.0992,1.0991,1.099,1.0966,1.0963,1.096,0,0,0,0,0,1.0944,1.0934,1.0941,1.0942,1.0952,1.0954,1.0956,1.0968,1.0977,1.0973,1.0982,1.0993,1.0994,1.1,1.1001,1.0992,1.0992,1.0991,1.099,1.0968,1.0964,1.096,0,0,0,0,0,0,1.0918,1.0936,1.0944,1.0938,1.0945,1.0958,1.0953,1.0964,1.0967,1.0969,1.0985,1.0987,1.0981,1.0987,1.0994,1.0982,1.0995,1.0993,1.0978,1.0974,1.0971,1.0969,1.1012,0,0,0,0,0,1.0912,1.0913,1.0928,1.0921,1.0924,1.0938,1.0939,1.0949,1.0956,1.0959,1.0967,1.0973,1.0974,1.0975,1.0977,1.0968,1.097,1.0963,1.096,1.0957,1.0955,1.095,1.0946,1.0984,1.0984,1.0984,0,0,1.0899,1.0909,1.0908,1.0916,1.0922,1.0922,1.094,1.0939,1.0939,1.0958,1.0955,1.0962,1.0969,1.0963,1.0961,1.0967,1.0945,1.0955,1.0953,1.0952,1.0948,1.0945,1.0941,1.0983,1.0983,1.0984,0,0,1.0875,1.0883,1.0878,1.0884,1.0893,1.0903,1.0902,1.0914,1.0919,1.0917,1.0931,1.0931,1.0934,1.0938,1.0941,1.092,1.093,1.092,1.0904,1.0899,1.0896,1.0893,1.0884,1.0881,1.0919,1.0919,1.0919,0,1.0857,1.0858,1.0873,1.0872,1.0875,1.0894,1.0888,1.0893,1.0903,1.0904,1.0912,1.0915,1.0922,1.0916,1.0911,1.0913,1.0912,1.0918,1.0895,1.0893,1.089,1.0882,1.0879,1.0917,1.0917,1.0918,1.0918,0,1.0835,1.0835,1.083,1.0839,1.0842,1.0839,1.0853,1.0854,1.0864,1.0872,1.087,1.0878,1.0882,1.0882,1.0891,1.0878,1.0882,1.0892,1.0905,1.0885,1.0878,1.0875,1.0915,1.0916,1.0916,1.0917,0,0,1.0793,1.0812,1.081,1.0814,1.0827,1.0827,1.0825,1.083,1.0829,1.0836,1.0833,1.0835,1.0845,1.0848,1.0858,1.0854,1.0836,1.0865,1.0865,1.0858,1.082,1.0811,1.0807,1.0843,1.0843,1.0842,1.0819,0,1.077,1.0767,1.0782,1.0774,1.0775,1.0793,1.0791,1.0798,1.0806,1.0807,1.0817,1.0817,1.0831,1.0833,1.083,1.0839,1.0828,1.0841,1.084,1.0839,1.0835,1.0804,1.0794,1.0771,1.0817,1.0816,1.0816,0,1.0742,1.0748,1.0741,1.0754,1.0755,1.0752,1.0758,1.0759,1.0768,1.0774,1.0778,1.079,1.0788,1.0802,1.0798,1.0807,1.0808,1.0812,1.0811,1.081,1.0825,1.08,1.0765,1.0761,1.0812,1.0812,1.0812,0,1.071,1.0717,1.0713,1.0717,1.0732,1.073,1.0736,1.0746,1.0748,1.0753,1.0754,1.0759,1.076,1.0763,1.0776,1.0785,1.0771,1.0786,1.0775,1.0775,1.0769,1.0769,1.0732,1.0773,1.0773,1.0773,1.0773,0,1.0682,1.0677,1.0699,1.0697,1.0691,1.0709,1.0702,1.071,1.0719,1.0718,1.0735,1.0733,1.0751,1.0751,1.0762,1.0757,1.0758,1.0762,1.0764,1.076,1.0759,1.0759,1.076,1.0772,1.0772,1.0772,1.0773,0,1.0645,1.066,1.0657,1.0673,1.0677,1.0672,1.0685,1.0683,1.0693,1.0692,1.0693,1.0708,1.071,1.0723,1.0728,1.0734,1.0725,1.0731,1.0722,1.0723,1.0711,1.0711,1.0671,1.0666,1.0711,1.0711,1.0711,0,1.0625,1.0621,1.0637,1.0638,1.0644,1.0645,1.0648,1.0665,1.0667,1.0677,1.0673,1.0677,1.068,1.0681,1.0692,1.0695,1.0701,1.0687,1.0701,1.0696,1.0699,1.0698,1.0697,1.0683,1.0682,1.0682,1.0681,0,1.0587,1.0595,1.0598,1.0604,1.0607,1.0613,1.0619,1.0619,1.0638,1.0639,1.0641,1.0644,1.0649,1.0651,1.0657,1.0662,1.0674,1.0677,1.0674,1.0668,1.0662,1.0664,1.0712,1.0677,1.0678,1.0678,1.0678,1.0678,1.0556,1.0554,1.0565,1.0568,1.0575,1.0581,1.058,1.0591,1.0593,1.0599,1.0609,1.061,1.0619,1.0627,1.0632,1.0633,1.064,1.0636,1.0635,1.0633,1.063,1.0664,1.0634,1.0634,1.0634,1.0634,1.0634,0,1.0518,1.0527,1.053,1.0539,1.0541,1.0554,1.0562,1.0563,1.0564,1.0571,1.0575,1.0577,1.058,1.0592,1.0596,1.0593,1.0599,1.0593,1.0593,1.0594,1.0624,1.0625,1.0589,1.0589,1.0589,1.0589,1.0589,1.0589,1.0498,1.0495,1.0504,1.0504,1.0513,1.0514,1.0517,1.0522,1.0529,1.0531,1.0534,1.0542,1.0551,1.0556,1.0559,1.0562,1.0562,1.0555,1.056,1.0587,1.0592,1.0596,1.0597,1.0555,1.0555,1.0529,1.0529,1.0528]},{"header":{"parameterUnit":"m.s-1","parameterCategory":1,"la1":30.2991,"la2":30.254,"lo1":-89.0895,"lo2":-89.0444,"dy":0.0017,"dx":0.0017,"nx":28,"ny":28,"refTime":"2024-10-22T03:00:00:Z","depth":0,"parameterNumber":3,"parameterNumberName":"V-component_of_WINDS"},"data":[0,0,0,0,0,0,0,0,0,0,0,0,0,0,0,0,0,0,0,0,0,0,0,0,0,0,0,0,0,0,0,0,0,0,0,0,0,0,0,0,0,0,0,0,0,0,0,0,0,0,0,0,0,0,0,0,0,0,-0.4598,-0.4599,0,-0.4683,-0.4684,-0.4684,-0.4751,-0.4751,-0.4752,-0.4753,-0.484,-0.4842,-0.4844,0,0,0,0,0,0,0,0,0,0,0,0,0,-0.4494,-0.4496,-0.4598,-0.4599,-0.46,-0.4682,-0.4684,-0.4685,-0.4751,-0.4751,-0.4752,-0.4753,-0.484,-0.4842,-0.4844,0,0,0,0,0,0,0,0,0,0,0,0,0,-0.4555,-0.4496,-0.4597,-0.4643,-0.4647,-0.4682,-0.4684,-0.4685,-0.475,-0.4751,-0.4752,-0.4753,-0.4839,-0.4842,-0.4844,-0.4841,0,0,-0.4852,-0.4853,0,0,0,0,0,0,0,0,-0.4551,-0.4559,-0.4635,-0.464,-0.4645,-0.4707,-0.4679,-0.4737,-0.475,-0.4711,-0.4753,-0.4754,-0.4795,-0.4802,-0.4815,-0.4845,-0.4849,-0.4852,-0.4854,-0.4855,-0.4856,0,0,0,0,0,0,0,-0.4547,-0.4555,-0.4631,-0.4636,-0.4642,-0.4659,-0.4669,-0.4691,-0.4747,-0.4715,-0.472,-0.4729,-0.4798,-0.4813,-0.4818,-0.485,-0.4852,-0.4855,-0.4856,-0.4857,-0.4883,-0.4882,0,0,0,0,0,0,-0.4536,-0.4551,-0.4629,-0.4634,-0.46,-0.466,-0.4671,-0.4686,-0.4747,-0.4757,-0.4728,-0.4732,-0.4808,-0.4815,-0.4821,-0.4822,-0.4855,-0.4858,-0.4859,-0.4884,-0.4883,-0.4882,0,0,0,0,0,0,-0.4533,-0.4542,-0.4625,-0.4594,-0.4606,-0.4661,-0.4677,-0.4687,-0.4702,-0.4757,-0.4767,-0.4732,-0.4809,-0.4818,-0.4836,-0.4826,-0.4859,-0.4861,-0.4885,-0.4884,-0.4882,-0.4823,0,0,0,0,0,0,-0.453,-0.4541,-0.454,-0.4594,-0.4607,-0.4638,-0.4677,-0.4688,-0.4706,-0.4712,-0.4764,-0.4773,-0.481,-0.4832,-0.4838,-0.483,-0.4863,-0.4886,-0.4884,-0.4883,-0.4826,-0.482,-0.4815,0,0,0,0,0,-0.4526,-0.452,-0.4539,-0.4548,-0.4607,-0.4637,-0.4645,-0.4687,-0.4705,-0.4705,-0.474,-0.4772,-0.4826,-0.4833,-0.4841,-0.4834,-0.4887,-0.4885,-0.4883,-0.4829,-0.4821,-0.4815,0,0,0,0,0,0,-0.4463,-0.4528,-0.455,-0.4561,-0.4593,-0.4648,-0.4649,-0.4678,-0.4706,-0.471,-0.4762,-0.4773,-0.4786,-0.4812,-0.4818,-0.4834,-0.4861,-0.486,-0.4817,-0.481,-0.4804,-0.4798,-0.4865,0,0,0,0,0,-0.4451,-0.4469,-0.4525,-0.4529,-0.4544,-0.4593,-0.4608,-0.4638,-0.4673,-0.4687,-0.4724,-0.4758,-0.4783,-0.4798,-0.4824,-0.4831,-0.4843,-0.483,-0.4824,-0.4819,-0.4818,-0.4824,-0.4819,-0.4875,-0.4875,-0.4875,0,0,-0.4425,-0.4462,-0.4471,-0.4517,-0.4546,-0.4564,-0.4604,-0.4622,-0.4636,-0.469,-0.471,-0.4738,-0.4779,-0.4791,-0.4799,-0.4813,-0.4805,-0.4816,-0.4812,-0.4814,-0.4821,-0.4816,-0.4811,-0.4874,-0.4874,-0.4875,0,0,-0.4387,-0.4417,-0.4424,-0.4452,-0.4495,-0.4528,-0.4529,-0.458,-0.4601,-0.4621,-0.4662,-0.4681,-0.4722,-0.475,-0.4769,-0.4743,-0.4773,-0.475,-0.4719,-0.4725,-0.472,-0.4716,-0.4707,-0.4703,-0.4749,-0.4748,-0.4748,0,-0.435,-0.4379,-0.4424,-0.444,-0.4459,-0.4509,-0.4516,-0.4541,-0.459,-0.4602,-0.4618,-0.4672,-0.4703,-0.4723,-0.4716,-0.473,-0.4734,-0.4744,-0.4717,-0.4714,-0.4711,-0.4703,-0.4699,-0.4745,-0.4746,-0.4746,-0.4746,0,-0.4331,-0.435,-0.4351,-0.4397,-0.4416,-0.4427,-0.4475,-0.449,-0.4518,-0.455,-0.457,-0.4609,-0.4644,-0.4651,-0.4679,-0.4676,-0.4683,-0.4707,-0.4735,-0.4702,-0.4695,-0.4692,-0.4741,-0.4742,-0.4743,-0.4744,0,0,-0.4255,-0.4326,-0.4326,-0.4347,-0.4398,-0.4415,-0.4429,-0.4462,-0.4474,-0.4506,-0.4519,-0.4554,-0.4576,-0.4598,-0.463,-0.4635,-0.4612,-0.4659,-0.466,-0.4648,-0.461,-0.4591,-0.4587,-0.4632,-0.4632,-0.4631,-0.4607,0,-0.4226,-0.4253,-0.4295,-0.4308,-0.4327,-0.4375,-0.4388,-0.442,-0.445,-0.4471,-0.4505,-0.4528,-0.4557,-0.457,-0.4577,-0.4613,-0.4605,-0.4615,-0.4645,-0.4646,-0.4633,-0.4584,-0.4564,-0.4539,-0.4604,-0.4604,-0.4604,0,-0.4194,-0.4224,-0.4239,-0.4289,-0.4299,-0.4309,-0.4344,-0.4363,-0.4401,-0.4423,-0.4448,-0.4482,-0.45,-0.4525,-0.4551,-0.4557,-0.4572,-0.4592,-0.4592,-0.4596,-0.4622,-0.4586,-0.4532,-0.4527,-0.46,-0.46,-0.46,0,-0.4138,-0.4181,-0.4196,-0.4213,-0.4272,-0.4278,-0.4303,-0.4342,-0.436,-0.4391,-0.4403,-0.4435,-0.4453,-0.4477,-0.452,-0.4534,-0.4541,-0.4569,-0.456,-0.4559,-0.4559,-0.4558,-0.4505,-0.4568,-0.4569,-0.4569,-0.4569,0,-0.41,-0.4107,-0.4172,-0.4181,-0.4191,-0.4239,-0.4248,-0.4277,-0.4312,-0.4328,-0.4372,-0.4386,-0.4442,-0.4463,-0.4497,-0.4513,-0.4521,-0.4539,-0.4548,-0.4535,-0.4532,-0.4545,-0.4548,-0.4568,-0.4568,-0.4568,-0.4568,0,-0.4038,-0.4081,-0.4101,-0.4155,-0.4169,-0.4174,-0.422,-0.4231,-0.4264,-0.4284,-0.4292,-0.4343,-0.4371,-0.4416,-0.4456,-0.4479,-0.4489,-0.4504,-0.4475,-0.4481,-0.4468,-0.4469,-0.4422,-0.4418,-0.4483,-0.4482,-0.4482,0,-0.4011,-0.4018,-0.4072,-0.4086,-0.4109,-0.4131,-0.415,-0.4198,-0.4215,-0.426,-0.4266,-0.4296,-0.4323,-0.4364,-0.4406,-0.4437,-0.4453,-0.4435,-0.4458,-0.4445,-0.4453,-0.4452,-0.4453,-0.4429,-0.4428,-0.4427,-0.4426,0,-0.3958,-0.3979,-0.4004,-0.4036,-0.4057,-0.4085,-0.4115,-0.4124,-0.4179,-0.4197,-0.4225,-0.4245,-0.4287,-0.4316,-0.4354,-0.438,-0.4412,-0.4419,-0.4418,-0.4405,-0.4388,-0.4397,-0.446,-0.442,-0.442,-0.4421,-0.4421,-0.4421,-0.3913,-0.3921,-0.3961,-0.3988,-0.4015,-0.4043,-0.4056,-0.409,-0.4114,-0.4151,-0.4179,-0.4205,-0.4244,-0.4297,-0.4322,-0.4344,-0.4358,-0.4357,-0.4357,-0.4356,-0.4351,-0.4385,-0.4351,-0.4351,-0.4351,-0.4351,-0.4352,0,-0.3862,-0.389,-0.3914,-0.3955,-0.3976,-0.4004,-0.4039,-0.4055,-0.4077,-0.4111,-0.4137,-0.4169,-0.4198,-0.4242,-0.4275,-0.4284,-0.43,-0.4291,-0.4291,-0.4297,-0.4336,-0.4333,-0.4278,-0.4278,-0.4278,-0.4278,-0.4278,-0.4278,-0.3838,-0.3854,-0.388,-0.3911,-0.3939,-0.3965,-0.3982,-0.4008,-0.4035,-0.4069,-0.4094,-0.4122,-0.4161,-0.4197,-0.4225,-0.4237,-0.4247,-0.4234,-0.4251,-0.4287,-0.4294,-0.43,-0.4298,-0.4236,-0.4236,-0.421,-0.4209,-0.4209]}]]